Orbital Elements at Epoch 2459200.5 (2020-Dec-17.0) TDB
Reference: JPL 22 (heliocentric ecliptic J2000)
Element | Value | Uncertainty (1-sigma) | Units |
e | .0543726360331827 | 4.7013e-08 | |
a | 3.148193874616992 | 3.3385e-08 | au |
q | 2.977018274910547 | 1.4252e-07 | au |
i | 13.99432490187442 | 4.7736e-06 | deg |
node | 134.4216995689472 | 2.1502e-05 | deg |
peri | 126.5961920943865 | 5.1329e-05 | deg |
M | 196.9192489344254 | 4.8349e-05 | deg |
tp | 2460124.752924429902 (2023-Jun-29.25292443) | 0.00027652 | TDB |
period | 2040.284034876526 5.59 | 3.2454e-05 8.885e-08 | d yr |
n | .1764460211647868 | 2.8067e-09 | deg/d |
Q | 3.319369474323437 | 3.52e-08 | au |
|
| | Orbit Determination Parameters
Additional Information
|